Tiempo cada hora Dakor

Hoy, 22 Junio, Martes

Tiempo Temperatura Precipitaciones Viento Presión Humedad
00:00 +31°C° 0.1 mm 3 mps 748 mmHg 69%
01:00 +30°C° 0.1 mm 4 mps 748 mmHg 70%
02:00 +30°C° 0.1 mm 4 mps 748 mmHg 71%
03:00 +30°C° 0 mm 4 mps 748 mmHg 72%
04:00 +30°C° 0 mm 4 mps 748 mmHg 73%
05:00 +30°C° 0 mm 3 mps 748 mmHg 74%
06:00 +30°C° 0 mm 4 mps 749 mmHg 69%
07:00 +32°C° 0 mm 4 mps 749 mmHg 64%
08:00 +33°C° 0 mm 5 mps 750 mmHg 59%
09:00 +34°C° 0 mm 5 mps 750 mmHg 55%
10:00 +35°C° 0 mm 5 mps 749 mmHg 50%
11:00 +36°C° 0 mm 4 mps 749 mmHg 46%
12:00 +37°C° 0 mm 4 mps 749 mmHg 45%
13:00 +37°C° 0 mm 5 mps 748 mmHg 45%
14:00 +37°C° 0 mm 5 mps 748 mmHg 44%
15:00 +37°C° 0 mm 4 mps 748 mmHg 43%
16:00 +37°C° 0 mm 4 mps 747 mmHg 41%
17:00 +38°C° 0 mm 4 mps 747 mmHg 40%
18:00 +37°C° 0 mm 4 mps 747 mmHg 43%
19:00 +36°C° 0 mm 5 mps 748 mmHg 46%
20:00 +35°C° 0 mm 5 mps 748 mmHg 50%
21:00 +34°C° 0 mm 5 mps 748 mmHg 52%
22:00 +34°C° 0 mm 4 mps 748 mmHg 54%
23:00 +33°C° 0 mm 4 mps 749 mmHg 56%

Mañana, 23 Junio, Miércoles

Tiempo Temperatura Precipitaciones Viento Presión Humedad
00:00 +33°C° 0 mm 4 mps 748 mmHg 59%
01:00 +33°C° 0 mm 4 mps 748 mmHg 61%
02:00 +33°C° 0 mm 3 mps 748 mmHg 63%
03:00 +31°C° 0 mm 3 mps 748 mmHg 64%
04:00 +32°C° 0 mm 4 mps 748 mmHg 66%
05:00 +30°C° 0 mm 4 mps 748 mmHg 67%
06:00 +32°C° 0 mm 4 mps 749 mmHg 64%
07:00 +33°C° 0 mm 4 mps 749 mmHg 62%
08:00 +33°C° 0 mm 5 mps 750 mmHg 59%
09:00 +35°C° 0 mm 5 mps 750 mmHg 54%
10:00 +36°C° 0 mm 5 mps 750 mmHg 49%
11:00 +37°C° 0 mm 5 mps 750 mmHg 45%
12:00 +39°C° 0 mm 5 mps 749 mmHg 41%
13:00 +40°C° 0 mm 5 mps 749 mmHg 38%
14:00 +40°C° 0 mm 5 mps 748 mmHg 34%
15:00 +40°C° 0 mm 5 mps 748 mmHg 34%
16:00 +40°C° 0 mm 5 mps 747 mmHg 33%
17:00 +41°C° 0 mm 5 mps 747 mmHg 32%
18:00 +39°C° 0 mm 5 mps 748 mmHg 38%
19:00 +36°C° 0 mm 6 mps 748 mmHg 44%
20:00 +35°C° 0 mm 7 mps 749 mmHg 50%
21:00 +34°C° 0 mm 6 mps 749 mmHg 52%
22:00 +34°C° 0 mm 6 mps 749 mmHg 54%
23:00 +33°C° 0 mm 5 mps 749 mmHg 56%

Pasado mañana, 24 Junio, Jueves

Tiempo Temperatura Precipitaciones Viento Presión Humedad
00:00 +33°C° 0 mm 5 mps 749 mmHg 57%
01:00 +33°C° 0 mm 5 mps 749 mmHg 58%
02:00 +33°C° 0 mm 5 mps 748 mmHg 59%
03:00 +33°C° 0 mm 5 mps 748 mmHg 61%
04:00 +32°C° 0 mm 5 mps 749 mmHg 62%
05:00 +32°C° 0 mm 5 mps 749 mmHg 63%
06:00 +32°C° 0 mm 5 mps 749 mmHg 61%
07:00 +33°C° 0 mm 5 mps 750 mmHg 60%
08:00 +33°C° 0 mm 5 mps 750 mmHg 58%
09:00 +34°C° 0 mm 5 mps 750 mmHg 52%
10:00 +36°C° 0 mm 5 mps 750 mmHg 47%
11:00 +37°C° 0 mm 5 mps 750 mmHg 42%
12:00 +39°C° 0 mm 6 mps 749 mmHg 38%
13:00 +40°C° 0 mm 6 mps 748 mmHg 35%
14:00 +41°C° 0 mm 6 mps 748 mmHg 32%
15:00 +41°C° 0 mm 6 mps 747 mmHg 31%
16:00 +41°C° 0 mm 6 mps 747 mmHg 31%
17:00 +41°C° 0 mm 6 mps 747 mmHg 30%
18:00 +39°C° 0 mm 6 mps 747 mmHg 37%
19:00 +36°C° 0 mm 7 mps 748 mmHg 43%
20:00 +35°C° 0 mm 8 mps 748 mmHg 49%
21:00 +35°C° 0 mm 7 mps 748 mmHg 50%
22:00 +34°C° 0 mm 6 mps 748 mmHg 52%
23:00 +34°C° 0 mm 5 mps 748 mmHg 54%

25 Junio, Viernes

Tiempo Temperatura Precipitaciones Viento Presión Humedad
00:00 +34°C° 0 mm 5 mps 748 mmHg 55%
01:00 +33°C° 0 mm 5 mps 748 mmHg 57%
02:00 +33°C° 0 mm 5 mps 748 mmHg 59%
03:00 +32°C° 0 mm 5 mps 748 mmHg 60%
04:00 +32°C° 0 mm 5 mps 748 mmHg 61%
05:00 +32°C° 0 mm 5 mps 748 mmHg 62%
06:00 +32°C° 0 mm 5 mps 748 mmHg 59%
07:00 +33°C° 0 mm 6 mps 749 mmHg 56%
08:00 +34°C° 0 mm 6 mps 749 mmHg 53%
09:00 +35°C° 0 mm 6 mps 749 mmHg 49%
10:00 +36°C° 0 mm 6 mps 748 mmHg 44%
11:00 +38°C° 0 mm 7 mps 748 mmHg 39%
12:00 +39°C° 0 mm 6 mps 747 mmHg 36%
13:00 +40°C° 0 mm 6 mps 747 mmHg 33%
14:00 +41°C° 0 mm 6 mps 746 mmHg 30%
15:00 +41°C° 0 mm 7 mps 746 mmHg 30%
16:00 +41°C° 0 mm 7 mps 745 mmHg 30%
17:00 +41°C° 0 mm 7 mps 745 mmHg 30%
18:00 +39°C° 0 mm 7 mps 745 mmHg 37%
19:00 +38°C° 0 mm 7 mps 746 mmHg 44%
20:00 +35°C° 0 mm 8 mps 746 mmHg 50%
21:00 +35°C° 0 mm 7 mps 747 mmHg 52%
22:00 +35°C° 0 mm 6 mps 747 mmHg 53%
23:00 +34°C° 0 mm 5 mps 747 mmHg 54%

26 Junio, Sábado

Tiempo Temperatura Precipitaciones Viento Presión Humedad
00:00 +34°C° 0 mm 5 mps 747 mmHg 56%
01:00 +33°C° 0 mm 5 mps 747 mmHg 58%
02:00 +33°C° 0 mm 6 mps 747 mmHg 60%
03:00 +32°C° 0 mm 5 mps 747 mmHg 62%
04:00 +32°C° 0 mm 5 mps 747 mmHg 64%
05:00 +30°C° 0 mm 5 mps 747 mmHg 67%
06:00 +32°C° 0 mm 5 mps 748 mmHg 63%
07:00 +32°C° 0 mm 6 mps 748 mmHg 59%
08:00 +33°C° 0 mm 6 mps 748 mmHg 55%
09:00 +34°C° 0 mm 6 mps 748 mmHg 51%
10:00 +35°C° 0 mm 6 mps 748 mmHg 47%
11:00 +36°C° 0 mm 6 mps 748 mmHg 42%
12:00 +38°C° 0 mm 6 mps 747 mmHg 38%
13:00 +40°C° 0 mm 6 mps 747 mmHg 35%
14:00 +41°C° 0 mm 6 mps 746 mmHg 31%
15:00 +41°C° 0 mm 6 mps 746 mmHg 31%
16:00 +41°C° 0 mm 6 mps 746 mmHg 30%
17:00 +41°C° 0 mm 5 mps 746 mmHg 30%
18:00 +40°C° 0 mm 6 mps 746 mmHg 37%
19:00 +38°C° 0 mm 7 mps 747 mmHg 43%
20:00 +37°C° 0 mm 8 mps 747 mmHg 49%
21:00 +35°C° 0 mm 7 mps 747 mmHg 51%
22:00 +35°C° 0 mm 5 mps 748 mmHg 52%
23:00 +35°C° 0 mm 4 mps 748 mmHg 54%

27 Junio, Domingo

Tiempo Temperatura Precipitaciones Viento Presión Humedad
00:00 +34°C° 0 mm 5 mps 748 mmHg 55%
01:00 +34°C° 0 mm 5 mps 748 mmHg 55%
02:00 +33°C° 0 mm 5 mps 748 mmHg 56%
03:00 +33°C° 0 mm 5 mps 748 mmHg 57%
04:00 +33°C° 0 mm 5 mps 749 mmHg 58%
05:00 +32°C° 0 mm 4 mps 749 mmHg 59%
06:00 +33°C° 0 mm 5 mps 749 mmHg 56%
07:00 +33°C° 0 mm 5 mps 749 mmHg 53%
08:00 +34°C° 0 mm 6 mps 750 mmHg 50%
09:00 +35°C° 0 mm 6 mps 750 mmHg 45%
10:00 +37°C° 0 mm 5 mps 750 mmHg 41%
11:00 +39°C° 0 mm 5 mps 750 mmHg 36%
12:00 +40°C° 0 mm 5 mps 749 mmHg 34%
13:00 +40°C° 0 mm 5 mps 749 mmHg 32%
14:00 +41°C° 0 mm 5 mps 748 mmHg 29%
15:00 +41°C° 0 mm 5 mps 748 mmHg 29%
16:00 +41°C° 0 mm 5 mps 748 mmHg 29%
17:00 +41°C° 0 mm 5 mps 747 mmHg 29%
18:00 +40°C° 0 mm 6 mps 748 mmHg 33%
19:00 +39°C° 0 mm 6 mps 748 mmHg 37%
20:00 +36°C° 0 mm 7 mps 748 mmHg 42%
21:00 +36°C° 0 mm 6 mps 749 mmHg 45%
22:00 +35°C° 0 mm 6 mps 749 mmHg 49%
23:00 +34°C° 0 mm 6 mps 750 mmHg 53%
Mostrar más

Necesitamos Su Consentimiento

Meteoprog y nuestros Proveedores de Servicios pueden almacenar y acceder a sus datos personales como cookies, identificadores de dispositivo u otras tecnologías similares de su dispositivo y procesar dichos datos para personalizar contenido y anuncios, además de ofrecer funciones de redes sociales y analizar el tráfico.

  • Almacenar y/o acceder a información en su dispositivo

    Se puede almacenar o acceder a cookies, identificadores de dispositivo u otra información de su dispositivo para los fines anteriormente indicados.

  • Anuncios y contenido personalizados, medición de anuncios y contenido, percepciones del público, y desarrollo de productos

    Los anuncios y el contenido pueden personalizarse en base a su perfil. Se pueden añadir más datos para personalizar mejor los anuncios y contenidos. Se puede medir el rendimiento de los anuncios y contenidos. Se puede obtener la percepción sobre el público que ha visto los anuncios y contenidos. Dichos datos pueden usarse para desarrollar o mejorar la experiencia del usuario, sistemas y software.

Al hacer clic en ‘Estoy De Acuerdo’ usted permitirá el uso de las cookies, identificadores de dispositivo, balizas web u otras tecnologías similares indicadas. Su configuración puede cambiarse desde el navegador de su dispositivo.

Para ciertos fines, los intereses legítimos pueden ser considerados por encima del consentimiento. Puede leer más sobre ello en nuestra Política de Privacidad y Cookies.